Tracking 27422 objects as of 30-May-2023
HD Live streaming from Space Station
objects crossing your sky now

FENGYUN 1C DEB

Track FENGYUN 1C DEB now!
10-day predictions


NORAD ID: 30679
Int'l Code: 1999-025AQM
Perigee: 851.4 km
Apogee: 1,107.8 km
Inclination: 99.5 °
Period: 104.5 minutes
Semi major axis: 7350 km
RCS: 0.0204 m2 (small)
Launch date: May 10, 1999
Source: People's Republic of China (PRC)
Launch site: Taiyaun Space Center, China (TSC)

Note: This is SATELLITE DEBRIS
Your satellite tracking list
Your tracking list is empty




NASA's NSSDC Master Catalog

Two Line Element Set (TLE):
1 30679U 99025AQM 23150.35536175  .00000444  00000-0  43866-3 0  9998
2 30679  99.4777 195.8794 0174369 358.9863  60.5785 13.77591642817478
Source of the keplerian elements: AFSPC